Location: Piotrkow Trybunalski
(51.4000°N, 19.6830°E)
Time: 04:09:15
(UTC+02:00)

A-11 Canister half - Pass Details

Date: 30 January 2023
Orbit: 1526 x 1682 km, 47.3° (Epoch: 24 March)

Event Time Altitude Azimuth Distance (km) Brightness Sun altitude
Rises 09:22:55 0° 262° (W) 4,685 11.3 13.4°
Reaches altitude 10° 09:25:56 10° 260° (W) 3,712 10.8 13.7°
Maximum altitude 09:35:14 70° 180° (S) 1,646 9.7 14.5°
Drops below altitude 10° 09:44:49 10° 99° (E) 3,819 11.8 15.3°
Sets 09:47:59 0° 98° (E) 4,826 12.2 15.6°
